Stations météo

Publicité
Rodez, France (7552): Température de l'air & dewpoint: 16.07.2018 10:00:00 - 22.07.2018 10:00:00 (CEST)Rodez, France (7552): Température de l'air 5cm: 16.07.2018 10:00:00 - 22.07.2018 10:00:00 (CEST)Rodez, France (7552): Vitesse du vent & gusts: 16.07.2018 10:00:00 - 22.07.2018 10:00:00 (CEST)Rodez, France (7552): Direction du vent: 16.07.2018 10:00:00 - 22.07.2018 10:00:00 (CEST)Rodez, France (7552): reduced air pressure: 16.07.2018 10:00:00 - 22.07.2018 10:00:00 (CEST)Rodez, France (7552): visibility: 16.07.2018 10:00:00 - 22.07.2018 10:00:00 (CEST)Rodez, France (7552): Ensoleillement: 16.07.2018 10:00:00 - 22.07.2018 10:00:00 (CEST)Rodez, France (7552): Quantités de précipitations: 16.07.2018 10:00:00 - 22.07.2018 10:00:00 (CEST)
Date & Time tt [°C] td [°C] tt 5cm [°C] ff [km/h] ff [knt] fx [km/h] fx [knt] dd ppp [hPa] vv [km] sd [min] rr [mm]
22.07.2018 10:00:00 17,9 12,6 20,0 8 4 16 8 WNW 1015,9 38 58 0,0
22.07.2018 09:00:00 15,4 12,0 15,7 5 3 14 7 WNW 1016,6 26 57 0,0
22.07.2018 08:00:00 13,6 11,3 8,5 4 2 7 4 NNW 1016,7 47 54 0,0
22.07.2018 07:00:00 9,9 8,7 8,1 2 1 6 3 S 1017,7 26 0 0,0
22.07.2018 06:00:00 10,3 8,7 8,1 5 3 10 6 S 1017,3 30 0 0,0
22.07.2018 05:00:00 10,5 9,3 7,5 4 2 6 4 WNW 1017,5 38 0 0,0
22.07.2018 04:00:00 10,5 9,6 9,9 5 3 6 3 S 1017,7 34 0 0,0
22.07.2018 03:00:00 11,0 9,9 12,8 4 2 7 4 SW 1018,0 41 0 0,0
22.07.2018 02:00:00 11,7 10,1 19,0 2 1 6 3 SW 1017,9 19 0 0,0
22.07.2018 01:00:00 13,6 10,4 12,4 3 2 6 4 WSW 1017,4 37 0 0,0
22.07.2018 00:00:00 13,5 11,0 12,3 4 2 6 3 S 1017,3 41 0 0,0
21.07.2018 23:00:00 15,5 10,7 19,0 3 1 10 5 W 1016,9 51 0 0,0
21.07.2018 22:00:00 15,5 11,1 22,4 4 2 11 6 WNW 1016,3 48 0 0,0
21.07.2018 21:00:00 16,7 11,6 37,9 11 6 21 11 WNW 1015,6 59 36 0,0
21.07.2018 20:00:00 18,9 11,7 49,1 10 5 21 12 NW 1014,8 57 5 0,0
21.07.2018 19:00:00 19,3 11,8 24,9 16 8 29 16 NW 1014,9 51 16 0,0
21.07.2018 18:00:00 19,8 11,6 24,9 13 7 27 15 NW 1014,7 60 23 0,0
21.07.2018 17:00:00 19,8 12,1 24,1 18 10 38 21 NNW 1014,6 45 27 0,0
21.07.2018 16:00:00 19,8 12,1 22,8 13 7 26 14 NNW 1015,0 59 21 0,0
21.07.2018 15:00:00 19,4 11,4 23,5 11 6 28 15 NW 1015,3 43 36 0,0
21.07.2018 14:00:00 18,4 11,2 22,3 16 9 32 18 W 1015,8 50 10 0,0
21.07.2018 13:00:00 18,0 11,3 22,2 17 9 29 15 WNW 1016,0 51 19 0,0
21.07.2018 12:00:00 17,7 10,1 22,6 13 7 27 15 NW 1016,0 40 50 0,0
21.07.2018 11:00:00 17,4 11,9 20,9 14 7 27 14 NW 1016,1 46 53 0,0
21.07.2018 10:00:00 16,2 11,1 18,1 11 6 20 11 W 1016,3 30 39 0,0
21.07.2018 09:00:00 15,3 11,5 19,5 6 3 16 9 WNW 1016,3 40 55 0,0
21.07.2018 08:00:00 13,9 11,4 18,3 11 6 16 9 W 1016,5 37 33 0,0
21.07.2018 07:00:00 13,4 10,7 25,5 12 7 21 12 W 1016,4 42 0 0,0
21.07.2018 06:00:00 14,1 10,9 25,8 12 6 23 12 W 1016,1 48 0 0,0
21.07.2018 05:00:00 14,2 11,2 26,1 16 9 34 18 W 1016,0 48 0 0,0
21.07.2018 04:00:00 15,0 11,8 22,4 25 14 33 18 W 1015,9 48 0 0,0
21.07.2018 03:00:00 15,4 12,7 23,8 19 10 36 20 WNW 1015,4 41 0 0,0
21.07.2018 02:00:00 16,7 14,5 38,4 23 13 37 20 W 1015,2 31 0 0,0
21.07.2018 01:00:00 17,8 16,1 52,3 19 10 30 16 WSW 1014,5 28 0 0,0
21.07.2018 00:00:00 18,2 15,8 52,4 15 8 24 13 W 1014,6 44 0 0,0
20.07.2018 23:00:00 18,2 16,4 51,9 16 8 35 19 W 1014,1 36 0 1,8
20.07.2018 22:00:00 18,2 16,4 - 22 12 36 20 SW 1014,6 1,9 0 2,9
20.07.2018 21:00:00 19,7 16,0 32,5 18 10 33 18 WNW 1012,8 52 0 0,0
20.07.2018 20:00:00 21,0 16,2 32,0 21 11 35 19 WNW 1012,3 51 9 0,0
20.07.2018 19:00:00 23,0 16,8 42,3 24 13 37 20 WNW 1011,8 52 46 0,0
20.07.2018 18:00:00 24,8 16,5 40,6 25 14 36 20 WNW 1011,5 60 18 0,0
20.07.2018 17:00:00 24,4 16,1 36,0 16 9 30 16 WNW 1012,0 26 28 0,0
20.07.2018 16:00:00 25,5 15,8 39,1 18 10 35 19 W 1012,5 30 53 0,0
20.07.2018 15:00:00 24,7 16,9 36,9 17 9 29 16 WNW 1013,0 42 36 0,0
20.07.2018 14:00:00 23,9 16,4 34,9 18 10 29 16 WNW 1013,3 54 45 0,0
20.07.2018 13:00:00 24,1 17,1 26,2 9 5 22 12 W 1013,6 60 44 0,0
20.07.2018 12:00:00 21,9 18,1 26,4 4 2 18 10 SSW 1014,4 43 10 0,0
20.07.2018 11:00:00 22,2 17,6 24,2 9 5 17 9 SSW 1014,6 56 49 0,0
20.07.2018 10:00:00 21,0 17,8 23,0 9 5 14 8 WSW 1014,9 34 29 0,0
20.07.2018 09:00:00 19,5 18,2 19,9 4 2 15 8 E 1014,9 24 5 0,0
20.07.2018 08:00:00 18,6 17,9 18,6 4 2 24 13 WNW 1015,3 18 0 0,0
20.07.2018 07:00:00 18,4 17,4 18,4 11 6 17 9 SSE 1014,8 20 0 1,0
20.07.2018 06:00:00 18,8 17,1 18,4 13 7 22 12 SW 1015,0 18 0 0,4
20.07.2018 05:00:00 18,1 15,7 18,0 7 4 10 5 SSW 1014,7 50 0 0,0
20.07.2018 04:00:00 18,0 14,9 17,9 3 1 8 4 S 1014,7 43 0 0,0
20.07.2018 03:00:00 18,4 15,1 27,2 5 3 10 5 SE 1014,5 51 0 0,0
20.07.2018 02:00:00 18,9 15,2 31,0 6 4 11 6 SE 1014,8 52 0 0,0
20.07.2018 01:00:00 22,2 15,1 32,1 3 2 18 10 W 1014,2 60 0 0,0
20.07.2018 00:00:00 21,0 14,9 35,4 13 7 18 10 WSW 1014,7 60 0 0,0
19.07.2018 23:00:00 20,3 15,3 35,5 8 4 9 5 SSW 1014,5 60 0 0,0
19.07.2018 22:00:00 22,9 13,1 27,1 4 2 9 5 WSW 1013,6 9 0 0,0
19.07.2018 21:00:00 26,7 11,6 - 5 3 11 6 N 1012,3 60 41 0,0
19.07.2018 20:00:00 28,1 12,8 39,9 8 4 15 8 N 1011,9 50 60 0,0
19.07.2018 19:00:00 28,9 13,2 37,5 9 5 21 11 NW 1012,0 60 60 0,0
19.07.2018 18:00:00 29,1 13,3 37,5 8 5 21 11 NW 1012,1 60 60 0,0
19.07.2018 17:00:00 29,0 14,0 38,1 10 5 26 14 NW 1012,3 41 60 0,0
19.07.2018 16:00:00 29,0 15,2 41,4 11 6 24 13 NW 1012,7 41 60 0,0
19.07.2018 15:00:00 28,0 16,0 40,4 8 5 23 12 WNW 1013,1 43 60 0,0
19.07.2018 14:00:00 28,1 15,0 35,3 6 4 18 10 SW 1013,7 50 52 0,0
19.07.2018 13:00:00 27,2 16,5 38,1 10 5 19 10 N 1014,1 20 60 0,0
19.07.2018 12:00:00 26,4 14,8 34,0 4 2 20 11 ESE 1014,6 56 60 0,0
19.07.2018 11:00:00 24,4 15,6 31,9 7 4 14 7 ENE 1015,2 59 60 0,0
19.07.2018 10:00:00 22,4 15,7 27,1 5 3 12 6 ENE 1015,6 52 60 0,0
19.07.2018 09:00:00 19,8 15,6 21,6 3 1 8 5 SE 1016,1 53 60 0,0
19.07.2018 08:00:00 16,7 15,4 16,0 2 1 7 4 E 1016,6 23 56 0,0
19.07.2018 07:00:00 13,9 13,4 15,9 6 3 8 4 SW 1017,1 18 0 0,0
19.07.2018 06:00:00 13,9 13,4 17,7 3 1 5 3 SSE 1017,1 11 0 0,0
19.07.2018 05:00:00 14,5 13,7 18,6 3 2 9 5 SE 1016,7 12 0 0,0
19.07.2018 04:00:00 14,6 13,5 24,5 2 1 11 6 S 1016,8 20 0 0,0
19.07.2018 03:00:00 16,1 14,5 17,4 10 5 15 8 W 1016,3 40 0 0,0
19.07.2018 02:00:00 18,0 14,5 19,1 5 3 11 6 NNW 1016,2 52 0 0,0
19.07.2018 01:00:00 17,0 13,9 25,2 6 4 10 5 WSW 1017,0 44 0 0,0
19.07.2018 00:00:00 17,6 14,9 - 6 4 12 6 S 1017,0 44 0 0,0
18.07.2018 23:00:00 19,0 15,1 - 10 6 17 9 SE 1016,8 50 0 0,0
18.07.2018 22:00:00 18,9 15,9 - 12 6 22 12 SE 1017,1 42 0 0,0
18.07.2018 21:00:00 19,1 15,6 - 21 11 48 26 WSW 1016,1 46 0 0,2
18.07.2018 20:00:00 21,7 15,1 27,0 37 20 54 29 W 1014,8 39 0 0,0
18.07.2018 19:00:00 25,6 15,3 31,1 9 5 16 9 NW 1012,2 60 0 0,0
18.07.2018 18:00:00 28,6 12,5 37,6 8 5 23 12 NNE 1011,3 42 57 0,0
18.07.2018 17:00:00 28,5 9,7 38,9 10 6 22 12 NE 1011,8 18 60 0,0
18.07.2018 16:00:00 28,3 10,0 37,6 10 5 21 11 ENE 1012,6 18 60 0,0
18.07.2018 15:00:00 27,5 12,3 36,8 10 6 22 12 N 1012,9 60 60 0,0
18.07.2018 14:00:00 26,6 13,7 35,5 9 5 19 11 NNE 1013,7 18 60 0,0
18.07.2018 13:00:00 26,1 13,2 36,1 9 5 16 9 NE 1014,4 58 60 0,0
18.07.2018 12:00:00 25,0 13,2 34,3 5 3 13 7 E 1015,0 37 60 0,0
18.07.2018 11:00:00 23,4 13,8 29,6 5 3 14 8 NE 1015,7 51 60 0,0
18.07.2018 10:00:00 21,6 14,0 25,1 8 4 13 7 ENE 1016,2 60 60 0,0
18.07.2018 09:00:00 18,2 14,3 17,3 5 3 10 5 ESE 1017,1 55 60 0,0
18.07.2018 08:00:00 15,6 14,0 11,2 5 3 8 4 ESE 1017,5 20 57 0,2
18.07.2018 07:00:00 12,2 11,7 9,1 3 2 6 3 ENE 1018,3 11 0 0,0
18.07.2018 06:00:00 12,3 11,5 10,9 0 0 7 4 N 1018,2 17 0 0,0
18.07.2018 05:00:00 13,3 12,8 11,6 4 2 7 4 ENE 1018,1 20 0 0,0
18.07.2018 04:00:00 13,6 12,8 13,7 8 5 10 5 SE 1018,2 15 0 0,0
18.07.2018 03:00:00 13,2 11,6 12,8 4 2 5 3 E 1018,8 20 0 0,0
18.07.2018 02:00:00 14,4 13,1 11,4 4 2 7 4 SSW 1018,7 39 0 0,0
18.07.2018 01:00:00 14,5 13,0 19,9 4 2 6 3 SSW 1019,0 39 0 0,0
18.07.2018 00:00:00 15,6 12,7 17,5 2 1 5 3 W 1018,8 41 0 0,0
17.07.2018 23:00:00 17,0 13,5 19,8 3 2 7 4 SSW 1018,6 50 0 0,0
17.07.2018 22:00:00 19,7 13,6 38,1 6 3 10 5 NW 1017,7 60 0 0,0
17.07.2018 21:00:00 21,4 13,6 30,4 7 4 22 12 NW 1017,1 59 43 0,0
17.07.2018 20:00:00 23,1 13,6 28,7 13 7 29 16 NW 1016,6 18 60 0,0
17.07.2018 19:00:00 23,9 14,3 29,3 18 10 36 20 NW 1016,4 19 60 0,0
17.07.2018 18:00:00 23,6 13,7 30,0 20 11 36 19 NW 1017,2 20 60 0,0
17.07.2018 17:00:00 23,6 14,9 30,1 20 11 31 17 NW 1017,3 24 60 0,0
17.07.2018 16:00:00 22,9 14,7 30,1 16 9 29 16 WNW 1018,0 29 60 0,0
17.07.2018 15:00:00 22,1 14,5 30,3 14 8 32 17 NNW 1018,4 35 60 0,0
17.07.2018 14:00:00 20,8 13,5 26,3 17 9 32 17 NW 1019,4 40 49 0,0
17.07.2018 13:00:00 20,4 14,1 23,6 16 9 29 16 WNW 1020,0 51 25 0,0
17.07.2018 12:00:00 19,2 13,8 22,7 15 8 27 15 NNW 1020,2 60 31 0,0
17.07.2018 11:00:00 18,3 14,6 20,2 16 8 23 12 WNW 1020,3 28 34 0,0
17.07.2018 10:00:00 16,9 14,4 22,3 13 7 20 11 WNW 1020,5 20 12 0,0
17.07.2018 09:00:00 16,3 14,5 22,2 11 6 18 10 W 1020,5 21 18 0,0
17.07.2018 08:00:00 15,5 14,7 25,9 14 7 18 10 W 1020,6 14 0 0,0
17.07.2018 07:00:00 15,6 14,5 26,1 11 6 21 12 WNW 1020,3 16 0 0,0
17.07.2018 06:00:00 15,6 14,5 26,1 15 8 20 11 W 1019,9 15 0 0,0
17.07.2018 05:00:00 15,7 14,9 22,2 11 6 23 12 WNW 1019,8 12 0 0,0
17.07.2018 04:00:00 16,0 15,0 21,5 18 10 32 18 WNW 1019,5 13 0 0,0
17.07.2018 03:00:00 16,6 16,0 22,4 19 10 27 15 W 1019,6 11 0 0,0
17.07.2018 02:00:00 15,7 14,9 25,2 7 4 26 14 W 1019,8 19 0 0,2
17.07.2018 01:00:00 16,0 14,7 20,6 20 11 43 23 NNW 1019,9 6 0 0,8
17.07.2018 00:00:00 17,4 16,4 20,6 21 11 31 17 W 1018,6 1,4 0 4,1
16.07.2018 23:00:00 17,5 15,8 25,8 13 7 19 10 W 1018,5 30 0 0,0
16.07.2018 22:00:00 17,2 15,5 25,9 14 8 32 18 WNW 1018,0 32 6 0,0
16.07.2018 21:00:00 18,3 16,5 29,4 21 12 31 17 WNW 1017,1 36 57 0,0
16.07.2018 20:00:00 18,0 16,8 26,0 12 6 40 22 NNW 1016,3 25 1 0,2
16.07.2018 19:00:00 20,6 16,4 23,5 15 8 23 12 W 1014,9 15 28 0,0
16.07.2018 18:00:00 18,9 16,7 22,1 6 3 18 10 N 1015,4 35 1 0,0
16.07.2018 17:00:00 18,9 16,1 22,5 9 5 26 14 WNW 1014,8 39 0 0,0
16.07.2018 16:00:00 18,4 16,4 22,2 19 10 28 15 W 1014,7 15 0 0,2
16.07.2018 15:00:00 17,2 16,2 24,4 14 7 28 15 W 1014,9 14 0 0,4
16.07.2018 14:00:00 16,2 15,7 31,2 17 9 26 14 WNW 1015,5 7 0 3,8
16.07.2018 13:00:00 15,7 15,2 - 9 5 14 8 WSW 1015,8 4,9 0 5,3
16.07.2018 12:00:00 16,0 15,4 22,7 9 5 13 7 SSW 1015,5 3,4 0 2,0
16.07.2018 11:00:00 16,3 15,5 23,0 12 6 21 11 SSW 1014,6 14 0 0,4
16.07.2018 10:00:00 16,3 15,3 23,1 16 8 27 15 NW 1014,1 8 0 0,6

tt = Température de l'air
td = dewpoint
tt 5cm = Température de l'air 5cm
ff = Vitesse du vent
fx = gusts
dd = Direction du vent
ppp = reduced air pressure
vv = visibility
sd = Ensoleillement
rr = Quantités de précipitations

stations d'obs. à proximité